Dewpoint
-4 -4 -4 -5 -4 -2 -3 -4 -5 -7 -5 -5 -6 -6 -5 -4 -5 -5 -5 -5 -5 -5 -5 -5 -5 -4 -3 -3 -3 -3 -3 -3 -5 -6 -6 -7 -7 -8 -8 -8 -7 -7 -7 -7
-2 -3 -3 -3 -3 -4 -3 -2 -3 -3 -3 -6 -5 -4 -4 -4 -5 -4 -4 -5 -5 -5 -5 -4 -4 -3 -3 -3 -3 -3 -3 -5 -5 -5 -6 -7 -8 -8 -7 -6 -6 -6 -7 -8
-3 -1 -1 -3 -3 -3 -4 -5 -5 -3 -4 -5 -4 -4 -4 -4 -4 -3 -3 -3 -3 -3 -3 -3 -3 -3 -3 -3 -3 -4 -4 -4 -4 -5 -6 -6 -6 -6 -6 -6 -7 -8 -8 -8
0 -2 -4 -5 -4 -4 -3 -3 -4 -4 -4 -4 -4 -3 -3 -3 -3 -3 -3 -3 -3 -2 -2 -3 -3 -3 -3 -3 -3 -3 -2 -3 -3 -5 -6 -6 -6 -6 -8 -8 -8 -8 -8 -8
1 1 -3 -3 -5 -3 -4 -2 -4 -3 -3 -3 -3 -3 -2 -2 -2 -2 -2 -1 -1 -1 -1 -1 -1 -1 -1 -2 -2 -2 -2 -3 -4 -5 -6 -6 -6 -7 -7 -8 -8 -9 -10 -11
1 1 -1 -4 -6 -5 -5 -1 -4 -3 -3 -2 -3 -2 -2 -1 -1 -1 -1 -0 -0 -0 -0 -0 -1 -1 -1 -2 -2 -2 -3 -3 -4 -5 -6 -6 -7 -8 -10 -10 -11 -13 -14 -15
1 1 1 -3 -6 -5 -1 -3 -5 -3 -2 -2 -2 -2 -1 -1 -2 -2 -2 -2 -2 -2 -2 -1 -2 -2 -2 -2 -3 -3 -4 -4 -5 -5 -7 -8 -10 -12 -12 -12 -14 -15 -17 -18
1 2 1 -5 -4 -2 -4 -4 -3 -2 -2 -2 -2 -2 -2 -4 -5 -5 -4 -4 -4 -3 -3 -3 -4 -5 -5 -5 -4 -4 -5 -5 -6 -6 -5 -8 -10 -10 -13 -17 -17 -19 -20 -21
-0 -0 -3 -4 -3 -4 -4 -3 -2 -2 -2 -2 -2 -2 -4 -4 -3 -4 -6 -6 -7 -10 -14 -14 -14 -14 -13 -13 -12 -11 -11 -10 -10 -11 -12 -13 -15 -17 -18 -18 -18 -18 -19 -20
-3 -4 -3 -4 -4 -3 -3 -3 -2 -2 -1 -2 -3 -3 -4 -3 -3 -5 -9 -14 -17 -19 -21 -21 -21 -21 -20 -20 -19 -19 -19 -18 -17 -15 -14 -13 -11 -11 -12 -13 -17 -18 -19 -20
-2 -3 -3 -2 -2 -2 -2 -2 -2 -2 -3 -3 -3 -4 -3 -5 -8 -15 -20 -21 -20 -19 -17 -17 -16 -15 -15 -15 -20 -20 -17 -17 -17 -17 -17 -16 -16 -17 -18 -21 -19 -18 -20 -18
-1 -3 -3 -3 -2 -2 -2 -2 -2 -2 -2 -4 -4 -5 -7 -14 -18 -18 -19 -18 -18 -17 -16 -16 -15 -14 -14 -16 -18 -17 -16 -17 -16 -15 -15 -15 -14 -15 -20 -19 -20 -19 -17 -14
-2 -3 -3 -3 -2 -2 -2 -2 -2 -3 -5 -6 -10 -16 -17 -18 -19 -18 -18 -18 -16 -14 -14 -14 -13 -14 -14 -14 -14 -15 -14 -17 -16 -13 -13 -13 -14 -11 -13 -22 -18 -17 -16 -15
-3 -3 -3 -3 -3 -3 -3 -2 -3 -7 -11 -16 -20 -19 -18 -18 -19 -19 -18 -18 -16 -15 -15 -14 -13 -12 -13 -12 -15 -15 -15 -15 -14 -13 -13 -12 -13 -13 -13 -13 -13 -15 -15 -13
-5 -5 -4 -3 -3 -4 -3 -4 -8 -14 -18 -19 -18 -19 -20 -19 -18 -18 -17 -16 -15 -14 -14 -15 -17 -17 -18 -17 -15 -15 -14 -14 -14 -13 -13 -13 -12 -11 -11 -12 -12 -12 -12 -13
-8 -5 -4 -4 -5 -7 -6 -9 -15 -18 -17 -18 -17 -17 -16 -15 -16 -17 -15 -14 -12 -12 -14 -15 -16 -18 -18 -16 -15 -15 -15 -14 -12 -12 -12 -11 -11 -11 -11 -11 -12 -12 -12 -12
-9 -6 -4 -5 -6 -6 -8 -12 -14 -14 -14 -15 -17 -18 -17 -16 -14 -13 -13 -12 -12 -11 -13 -14 -16 -18 -17 -16 -15 -15 -14 -15 -14 -12 -11 -11 -11 -11 -12 -12 -11 -11 -11 -10
-8 -5 -5 -7 -9 -10 -12 -12 -14 -16 -16 -15 -14 -13 -12 -12 -12 -12 -12 -12 -11 -13 -17 -17 -17 -17 -17 -16 -16 -15 -14 -14 -14 -14 -13 -11 -11 -11 -11 -11 -10 -9 -9 -9
-5 -5 -5 -6 -8 -12 -15 -17 -16 -15 -14 -14 -13 -14 -14 -14 -14 -16 -15 -13 -12 -13 -18 -16 -16 -15 -14 -15 -14 -13 -13 -13 -13 -12 -12 -11 -11 -10 -9 -8 -8 -8 -8 -8
-11 -13 -15 -15 -15 -14 -15 -15 -16 -18 -19 -18 -17 -15 -15 -15 -14 -13 -12 -12 -12 -12 -12 -12 -12 -12 -13 -13 -12 -11 -11 -11 -10 -10 -10 -10 -9 -9 -8 -8 -8 -9 -9 -9
-15 -15 -14 -14 -16 -18 -18 -18 -15 -14 -14 -13 -13 -12 -12 -12 -12 -11 -10 -10 -11 -11 -10 -10 -10 -10 -10 -10 -10 -10 -9 -9 -9 -8 -8 -8 -8 -8 -8 -9 -9 -9 -9 -8
-13 -13 -16 -17 -16 -16 -15 -14 -13 -12 -12 -11 -11 -11 -10 -10 -10 -10 -10 -9 -10 -10 -9 -9 -9 -9 -9 -9 -8 -8 -8 -8 -8 -8 -8 -8 -8 -8 -8 -8 -8 -8 -8 -8
-12 -14 -16 -16 -16 -16 -14 -13 -12 -11 -11 -11 -10 -10 -10 -10 -9 -9 -9 -10 -10 -10 -10 -9 -9 -9 -8 -8 -8 -8 -8 -9 -9 -8 -8 -9 -8 -9 -9 -9 -8 -8 -8 -8
-11 -15 -15 -15 -15 -14 -12 -12 -11 -11 -11 -10 -10 -10 -9 -9 -10 -10 -10 -10 -10 -10 -9 -9 -9 -9 -8 -8 -8 -8 -9 -9 -9 -9 -9 -9 -9 -9 -9 -9 -9 -9 -9 -9
-13 -13 -14 -14 -14 -11 -10 -10 -10 -10 -10 -10 -10 -10 -10 -11 -10 -10 -10 -10 -9 -10 -10 -10 -9 -9 -9 -9 -9 -9 -9 -9 -9 -9 -9 -9 -9 -9 -9 -9 -9 -9 -10 -9
-12 -14 -14 -12 -11 -11 -11 -10 -10 -10 -9 -10 -11 -11 -11 -10 -11 -12 -12 -11 -10 -10 -10 -11 -10 -10 -9 -9 -9 -9 -9 -9 -9 -9 -9 -9 -9 -10 -10 -11 -11 -11 -11 -11
-14 -13 -11 -11 -12 -11 -10 -10 -10 -11 -11 -11 -11 -11 -11 -13 -13 -13 -12 -12 -12 -12 -11 -11 -10 -10 -10 -9 -9 -9 -9 -9 -9 -10 -10 -10 -10 -10 -10 -10 -10 -11 -11 -11
Wind_Speed
3 5 2 2 3 2 3 1 3 3 5 3 4 5 6 8 9 10 10 7 4 6 9 11 12 13 12 12 13 13 16 19 19 20 21 22 22 23 24 23 23 23 23 22
3 2 3 3 5 6 3 2 4 2 1 3 5 6 8 8 9 12 11 10 9 9 9 4 6 9 10 10 13 17 20 20 21 23 23 23 23 24 24 23 23 23 23 23
4 1 4 2 3 3 3 3 4 3 4 5 3 8 7 8 9 9 8 8 9 10 10 10 9 9 12 15 18 20 21 22 24 25 26 26 25 25 25 25 25 24 24 23
3 3 2 4 1 3 7 1 2 6 5 7 8 10 11 10 8 7 8 9 9 10 10 12 13 15 17 19 18 20 24 26 26 26 27 26 26 26 26 26 26 26 25 25
2 1 6 3 2 5 3 3 2 6 5 6 12 10 7 6 5 4 5 6 8 11 14 16 16 18 20 21 22 25 27 26 25 25 25 26 27 27 26 27 26 25 25 25
2 2 5 1 2 2 2 3 6 8 7 6 8 2 3 1 0 2 5 9 13 14 14 16 18 21 23 24 25 28 28 27 26 26 26 27 28 28 26 25 26 25 25 23
2 3 7 4 4 2 3 4 9 9 8 6 3 3 2 1 5 9 14 17 19 19 17 15 15 17 20 23 26 28 28 31 32 32 28 27 28 27 26 26 26 25 24 23
2 1 7 6 3 5 4 10 11 10 8 6 4 3 4 9 13 16 18 18 18 17 17 18 21 22 22 22 22 24 26 27 27 28 28 26 27 27 26 24 24 24 25 25
7 5 1 9 2 2 8 7 11 11 7 4 3 6 12 14 14 15 16 14 12 13 15 15 17 18 20 21 21 23 25 26 26 26 25 24 25 24 25 24 24 26 26 26
1 1 5 2 5 6 8 9 10 9 7 4 6 12 13 12 13 12 10 11 14 16 19 21 22 24 25 27 28 29 31 32 32 31 31 32 30 30 30 30 29 29 29 30
3 6 2 3 4 4 8 10 10 9 8 7 13 14 12 11 8 9 11 13 15 18 21 25 26 28 28 29 29 31 33 35 35 34 32 31 29 29 29 29 29 28 29 28
4 1 5 11 10 10 11 11 12 11 12 10 9 9 7 7 8 11 15 19 22 26 28 31 32 33 34 33 30 30 32 34 33 32 32 33 33 34 33 33 32 29 27 25
4 5 14 17 10 11 13 13 11 11 11 7 6 6 8 11 14 18 22 25 28 31 34 36 36 37 37 36 37 34 33 34 34 32 33 35 34 34 37 37 32 29 26 24
19 23 15 14 12 15 15 11 9 8 8 8 8 9 12 16 20 24 28 32 34 37 39 39 40 41 40 38 35 35 35 35 34 33 32 33 34 35 34 33 33 31 27 27
7 10 14 13 11 10 9 11 9 9 8 9 10 14 17 21 25 29 33 36 38 38 39 38 38 38 35 34 34 34 34 34 33 32 31 30 31 32 30 30 31 33 32 31
16 15 13 12 10 12 11 11 10 11 11 15 19 22 25 28 32 36 40 40 37 38 38 37 36 37 35 33 31 29 30 30 30 31 31 32 32 32 31 30 31 32 33 32
13 12 12 14 14 13 11 9 10 13 17 21 25 28 31 35 38 41 40 37 37 40 40 38 38 34 31 28 26 27 29 31 31 31 31 32 31 30 29 31 32 31 32 31
6 9 9 9 7 5 7 11 15 19 23 28 30 32 34 36 37 39 40 40 40 42 40 38 36 31 30 28 28 30 31 32 33 33 32 32 31 30 31 31 31 33 34 33
4 2 4 6 7 10 14 21 26 30 32 31 32 34 34 36 37 38 37 39 40 40 43 38 35 33 32 31 31 32 32 32 33 32 32 30 30 30 30 31 32 30 29 28
7 8 9 12 15 20 26 29 31 34 35 32 32 33 36 39 38 38 38 41 40 40 40 38 34 33 32 32 32 31 30 31 31 31 30 30 30 31 32 30 29 30 29 29
15 16 18 21 24 27 29 31 32 35 37 35 35 35 34 35 34 34 36 39 40 35 33 31 30 31 30 30 29 29 30 30 30 29 29 30 31 32 31 27 28 29 29 27
16 17 17 18 23 30 32 34 35 36 35 32 30 30 32 35 36 37 36 35 38 34 33 33 31 30 31 28 28 29 29 30 31 30 31 31 30 30 30 29 30 28 27 28
20 17 19 24 29 36 38 34 31 28 29 31 32 33 34 35 34 35 40 35 34 34 33 33 34 32 31 28 29 30 30 30 29 29 30 30 29 29 29 28 27 29 28 27
20 20 25 29 33 38 35 32 30 31 33 34 35 33 31 34 36 33 35 36 34 32 32 32 30 29 29 29 29 29 28 28 29 28 28 27 27 26 26 27 29 27 28 25
20 24 28 30 36 34 32 33 33 34 35 34 32 32 31 30 31 34 32 33 31 29 29 29 28 27 26 27 28 27 25 25 25 25 23 24 26 25 25 27 27 27 26 24
24 26 30 32 30 30 30 31 33 32 31 32 33 32 31 26 32 36 34 32 30 29 29 28 26 24 24 24 24 23 22 22 21 20 22 24 23 24 24 23 22 23 23 25
25 29 29 29 30 29 30 27 28 30 31 28 34 32 33 33 27 27 25 25 25 26 27 27 25 23 22 23 21 18 17 17 19 21 20 21 23 24 25 27 28 28 29 29
Wind_Direction
259 255 251 260 267 205 193 215 155 158 132 256 143 99 76 70 68 69 67 58 8 312 292 278 271 261 263 270 279 288 298 301 300 304 306 306 306 305 304 304 304 303 304 304
288 331 359 293 280 251 238 276 299 275 329 140 86 85 61 57 67 72 59 40 16 3 2 323 266 254 264 271 284 296 302 302 304 305 303 303 302 300 300 300 300 300 301 302
261 258 346 335 227 198 193 179 167 168 183 157 112 109 105 106 105 84 61 43 27 14 0 345 332 314 299 296 297 301 305 307 309 307 304 304 302 301 301 301 300 301 303 304
252 313 354 226 15 156 125 63 164 107 140 144 142 124 103 90 70 46 20 6 355 343 331 320 311 309 305 304 304 309 310 308 307 304 302 301 301 303 302 300 299 299 300 300
105 309 296 131 188 150 183 224 224 144 133 100 138 115 85 68 35 12 358 354 345 331 320 311 311 313 311 309 307 308 311 308 307 304 303 304 305 305 302 300 299 299 299 301
124 142 223 207 196 116 84 277 179 147 147 141 150 118 243 336 287 303 308 305 304 303 302 300 302 303 303 304 304 307 310 311 313 312 307 305 305 304 302 301 301 301 300 300
164 222 288 236 160 159 97 233 164 160 158 159 169 187 172 175 299 311 314 313 315 320 323 322 319 311 311 312 312 313 310 305 303 303 304 306 308 306 304 302 301 301 301 301
121 190 276 163 113 174 176 150 172 179 182 186 184 204 294 311 308 307 309 311 312 319 321 317 317 320 320 318 315 311 309 308 305 302 298 301 299 299 299 301 299 301 305 304
186 215 213 187 121 160 187 191 198 199 193 202 249 296 308 306 307 310 314 319 328 333 335 334 330 328 325 324 321 316 311 310 311 310 305 300 300 299 299 300 300 302 305 304
113 30 144 180 248 232 227 224 204 212 207 223 284 301 290 290 296 302 314 322 325 325 324 323 322 319 318 318 316 311 306 303 301 298 296 298 297 296 297 297 298 300 302 302
278 280 100 148 179 181 204 213 208 211 236 264 289 284 276 280 285 301 310 318 320 320 319 318 318 316 317 316 314 307 305 304 304 303 298 295 294 296 295 293 297 298 294 294
240 257 296 296 277 212 213 225 235 260 276 265 256 249 247 263 287 301 311 317 316 316 314 310 309 309 309 313 312 311 309 307 305 303 300 297 297 298 294 295 297 296 294 296
250 313 314 306 283 263 261 275 268 258 273 253 233 247 265 288 303 311 312 312 310 310 308 307 305 303 305 309 312 311 308 306 304 300 298 299 297 296 299 295 297 296 297 299
292 307 297 273 260 275 253 255 249 250 235 235 249 269 289 300 310 309 309 310 309 308 306 305 303 301 303 305 307 309 309 306 302 300 299 297 296 295 297 297 299 299 298 302
312 295 282 280 261 254 250 263 247 243 248 265 282 293 296 298 299 298 298 302 303 302 302 304 303 302 303 305 307 307 305 303 302 300 298 298 298 299 299 297 296 297 298 297
288 281 265 267 271 283 251 235 246 265 285 294 295 294 296 296 297 298 298 300 302 302 303 303 302 302 307 309 305 303 304 304 302 300 299 299 299 297 298 298 298 297 297 299
292 272 262 270 284 277 245 255 278 294 301 302 303 302 298 295 296 297 300 302 304 305 305 305 303 305 308 306 299 299 302 303 304 302 299 298 298 296 297 299 298 298 298 300
307 272 285 287 289 266 283 296 303 306 305 304 302 298 295 297 300 304 306 308 306 305 304 306 308 305 304 302 301 300 298 297 297 300 301 298 297 296 295 296 297 297 298 299
41 355 306 288 300 306 307 308 309 308 305 305 305 304 305 304 305 307 309 306 305 306 305 311 310 306 299 297 298 298 294 294 295 295 296 296 295 294 294 294 295 298 301 301
19 356 336 321 311 309 307 307 308 308 308 310 308 306 305 305 307 306 305 301 301 302 307 307 305 300 298 297 297 295 292 293 294 294 294 295 296 297 297 296 295 299 300 298
329 318 312 313 312 312 313 310 310 308 307 307 305 305 306 306 307 307 305 304 305 310 311 308 305 303 303 302 300 296 295 297 297 296 296 296 296 295 296 296 296 297 298 298
316 311 315 324 328 324 320 314 310 308 308 307 309 309 309 307 309 308 306 302 308 311 309 306 303 302 302 302 299 298 298 299 297 295 296 296 297 296 295 294 294 294 296 299
311 309 312 318 324 325 318 312 312 312 311 311 311 311 310 308 308 307 307 310 310 308 307 305 303 302 301 296 294 294 294 295 296 296 296 296 295 294 295 296 297 298 297 296
308 305 306 309 312 316 314 315 314 312 311 311 310 311 311 310 308 307 307 308 307 307 305 303 303 299 296 292 292 292 292 292 295 297 297 297 296 297 298 298 296 296 296 294
302 300 304 307 311 312 314 315 313 312 313 314 314 312 311 310 307 312 311 311 308 308 309 309 307 302 300 299 300 299 298 297 298 300 302 302 300 299 299 297 296 296 295 295
301 302 305 308 308 310 313 315 313 316 315 311 315 318 318 312 308 310 307 304 307 307 305 307 308 312 310 307 306 304 303 303 303 302 301 300 299 297 299 302 301 301 299 295
303 306 309 311 315 317 317 313 310 313 318 313 312 310 308 314 317 319 320 322 320 313 308 304 301 306 312 314 316 310 308 305 304 305 305 304 303 302 301 300 300 300 300 300
Height
1520 1519 1516 1514 1513 1514 1518 1512 1515 1517 1518 1515 1516 1516 1516 1516 1517 1517 1518 1519 1520 1520 1520 1520 1520 1520 1520 1519 1518 1518 1517 1516 1513 1510 1508 1505 1503 1501 1499 1496 1493 1489 1486 1483
1516 1514 1515 1515 1515 1515 1515 1512 1514 1515 1517 1516 1517 1517 1517 1517 1518 1518 1519 1520 1520 1520 1519 1519 1518 1518 1518 1518 1516 1515 1513 1511 1509 1506 1503 1501 1499 1496 1493 1490 1487 1484 1481 1477
1518 1516 1520 1519 1507 1512 1512 1511 1510 1515 1514 1514 1517 1517 1518 1519 1519 1519 1520 1521 1520 1520 1519 1519 1518 1517 1516 1516 1514 1512 1509 1507 1505 1502 1499 1496 1493 1490 1487 1484 1481 1478 1475 1472
1529 1521 1519 1507 1505 1505 1510 1513 1510 1511 1512 1513 1515 1517 1518 1519 1519 1519 1519 1519 1519 1519 1519 1519 1518 1516 1515 1513 1510 1508 1506 1503 1500 1497 1494 1491 1488 1484 1481 1478 1475 1471 1468 1465
1525 1526 1511 1510 1507 1509 1508 1514 1513 1513 1514 1515 1516 1518 1519 1519 1519 1520 1520 1520 1519 1518 1517 1516 1515 1513 1511 1509 1506 1504 1500 1497 1495 1491 1487 1484 1481 1478 1476 1472 1468 1465 1462 1459
1528 1521 1514 1502 1504 1504 1506 1514 1512 1513 1514 1514 1516 1521 1519 1519 1519 1519 1518 1517 1515 1514 1513 1511 1510 1507 1504 1502 1499 1496 1494 1491 1488 1485 1482 1479 1476 1472 1469 1466 1462 1459 1456 1453
1527 1532 1516 1503 1503 1504 1511 1513 1509 1511 1513 1513 1515 1516 1516 1516 1515 1514 1513 1512 1510 1509 1507 1506 1504 1501 1499 1497 1494 1491 1488 1485 1484 1480 1476 1474 1470 1466 1463 1460 1457 1454 1450 1447
1528 1528 1524 1502 1504 1506 1506 1505 1508 1509 1510 1511 1512 1513 1513 1513 1512 1511 1510 1508 1507 1505 1503 1502 1500 1497 1495 1492 1489 1486 1483 1480 1477 1474 1470 1467 1464 1461 1459 1454 1451 1448 1444 1441
1511 1507 1499 1501 1502 1502 1503 1504 1506 1507 1509 1510 1511 1512 1511 1510 1509 1509 1507 1505 1503 1502 1500 1498 1495 1492 1489 1487 1484 1481 1478 1474 1471 1468 1465 1462 1458 1455 1453 1449 1445 1442 1439 1435
1501 1499 1499 1500 1501 1502 1502 1503 1504 1505 1506 1507 1508 1508 1507 1507 1507 1506 1504 1502 1501 1499 1497 1495 1492 1489 1486 1481 1479 1475 1471 1467 1464 1460 1457 1455 1452 1449 1447 1443 1439 1437 1432 1428
1502 1498 1499 1499 1500 1501 1501 1501 1502 1502 1503 1502 1502 1504 1503 1503 1503 1502 1501 1499 1497 1495 1492 1489 1487 1483 1480 1476 1471 1467 1463 1459 1455 1452 1449 1446 1442 1440 1438 1436 1434 1427 1425 1422
1501 1498 1498 1498 1498 1498 1498 1499 1500 1499 1499 1497 1497 1499 1499 1499 1498 1497 1495 1493 1491 1490 1487 1483 1480 1476 1473 1469 1464 1459 1455 1451 1446 1443 1440 1438 1434 1430 1429 1427 1424 1421 1418 1415
1494 1495 1496 1496 1496 1496 1495 1495 1494 1494 1494 1494 1495 1495 1496 1495 1494 1491 1489 1487 1484 1482 1479 1476 1472 1467 1464 1460 1457 1452 1446 1443 1439 1434 1431 1429 1425 1423 1419 1415 1414 1411 1409 1407
1492 1491 1491 1491 1491 1492 1492 1491 1491 1491 1492 1492 1493 1493 1492 1491 1488 1486 1484 1480 1477 1473 1469 1466 1462 1456 1455 1452 1446 1442 1438 1434 1429 1425 1423 1421 1418 1415 1412 1408 1403 1401 1401 1399
1488 1488 1488 1488 1488 1488 1489 1490 1489 1489 1489 1489 1490 1489 1488 1486 1484 1480 1477 1474 1470 1464 1460 1456 1452 1446 1445 1441 1436 1432 1427 1423 1421 1417 1414 1412 1409 1407 1404 1401 1397 1393 1391 1390
1485 1484 1484 1485 1485 1484 1484 1486 1487 1488 1487 1486 1485 1484 1482 1479 1476 1472 1468 1464 1461 1454 1451 1447 1440 1438 1435 1429 1426 1423 1419 1416 1413 1410 1407 1404 1401 1398 1395 1393 1389 1386 1383 1381
1481 1481 1481 1481 1482 1482 1482 1482 1483 1483 1483 1482 1480 1477 1475 1471 1467 1463 1458 1454 1449 1444 1439 1436 1431 1428 1425 1420 1418 1415 1412 1408 1405 1401 1398 1395 1392 1389 1387 1385 1382 1378 1375 1374
1479 1480 1480 1480 1480 1480 1481 1481 1480 1479 1478 1475 1472 1468 1465 1461 1456 1450 1446 1442 1437 1433 1428 1425 1422 1418 1415 1413 1410 1406 1403 1400 1396 1392 1389 1386 1384 1381 1379 1376 1374 1371 1367 1365
1478 1479 1480 1480 1480 1478 1477 1475 1473 1471 1468 1467 1462 1457 1453 1449 1445 1440 1437 1432 1428 1423 1415 1416 1412 1408 1405 1403 1401 1397 1393 1389 1386 1383 1380 1377 1375 1373 1371 1368 1365 1362 1360 1357
1479 1480 1479 1478 1477 1475 1472 1469 1466 1462 1458 1456 1453 1448 1442 1438 1435 1430 1428 1422 1418 1415 1409 1404 1402 1398 1395 1393 1390 1386 1383 1379 1377 1374 1372 1369 1366 1363 1361 1360 1357 1354 1352 1349
1477 1476 1474 1473 1470 1468 1466 1462 1458 1454 1450 1447 1443 1438 1433 1428 1425 1422 1418 1411 1406 1405 1400 1396 1392 1388 1385 1383 1380 1376 1373 1370 1367 1365 1362 1360 1357 1354 1352 1350 1348 1346 1344 1341
1472 1470 1468 1467 1464 1460 1457 1453 1450 1446 1441 1437 1433 1429 1425 1420 1416 1411 1408 1404 1397 1395 1391 1386 1383 1380 1377 1374 1370 1367 1364 1362 1359 1356 1353 1351 1348 1346 1343 1341 1339 1337 1335 1333
1466 1464 1462 1460 1457 1453 1449 1446 1441 1438 1433 1429 1424 1421 1416 1412 1408 1402 1394 1395 1390 1385 1381 1377 1373 1370 1368 1365 1361 1358 1356 1353 1350 1348 1345 1342 1340 1337 1335 1332 1330 1329 1326 1324
1460 1459 1457 1454 1451 1447 1442 1437 1433 1429 1424 1420 1416 1412 1408 1401 1396 1395 1389 1384 1380 1376 1372 1368 1365 1362 1359 1355 1352 1350 1347 1345 1342 1339 1337 1335 1332 1329 1327 1325 1322 1320 1318 1316
1455 1454 1450 1447 1443 1438 1434 1429 1423 1419 1415 1411 1407 1403 1400 1396 1391 1384 1380 1375 1371 1368 1363 1360 1357 1353 1350 1347 1344 1341 1339 1336 1334 1331 1329 1327 1324 1321 1319 1317 1314 1312 1309 1307
1450 1447 1442 1440 1436 1431 1426 1421 1416 1412 1408 1403 1399 1395 1391 1387 1382 1377 1372 1368 1364 1360 1356 1353 1349 1346 1342 1339 1336 1333 1331 1329 1327 1325 1322 1320 1317 1314 1311 1309 1306 1303 1301 1299
1443 1440 1435 1430 1428 1423 1420 1416 1411 1405 1402 1398 1392 1388 1384 1379 1374 1370 1365 1361 1357 1352 1349 1345 1342 1340 1337 1334 1330 1328 1325 1323 1321 1319 1316 1313 1311 1308 1305 1302 1299 1296 1293 1290